Flag for U.S.A. Weather past 2 weeks in Kilgore, Texas, U.S.A.

Now
75 °F

Clear.


Feels Like: 75 °F
Forecast: 73 / 85 °F
Wind: 5 mph from Southwest

Location: Gregg County Airport

Current Time: Sep 18, 2014 at 2:51:45 AM

Latest Report: Sep 18, 2014 at 1:53 AM


Visibility: 10 mi

Pressure: 29.87 "Hg

Humidity: 85%

Dew point: 70 °F

Location of KilgoreLocation

Historic Weather in Kilgore — Graph

°F

Kilgore temperature yesterday

Maximum temperature yesterday: 91 °F (at 3:53 PM)
Minimum temperature yesterday: 70 °F (at 4:53 AM)
Average temperature yesterday: 80 °F

Past Weeks' High & Low Weather Summary

 TemperatureHumidityPressure
High96 °F (Sep 10, 3:53 PM)94% (Sep 3, 1:53 AM)30.24 "Hg (Sep 3, 1:53 AM)
Low62 °F (Sep 13, 7:53 AM)40% (Sep 4, 4:53 PM)29.78 "Hg (Sep 10, 5:53 PM)
Average79 °F72%30.00 "Hg
* Reported Sep 3 1:53 AM — Sep 18 1:53 AM, Kilgore, Weather by CustomWeather, © 2014

Note: Actual official high and low records may vary slightly from our data, if they occured in-between our weather recording intervals... More about our weather records

Advertising

Kilgore weather history for previous 24 hours

 ConditionsComfort  
Time TempWeatherWind HumidityBarometerVisibility
1:53 AM
Sep 18
75 °FClear.5 mph85%29.87 "Hg10 mi
12:53 AM76 °FClear.8 mph82%29.88 "Hg10 mi
11:53 PM
Sep 17
77 °FClear.6 mph82%29.89 "Hg10 mi
10:53 PM77 °FClear.6 mph82%29.90 "Hg10 mi
9:53 PM77 °FClear.3 mph85%29.88 "Hg10 mi
8:53 PM78 °FClear.No wind82%29.89 "Hg10 mi
7:53 PM80 °FSunny.No wind76%29.87 "Hg10 mi
6:53 PM83 °FSunny.7 mph68%29.85 "Hg10 mi
5:53 PM85 °FSunny.10 mph63%29.85 "Hg10 mi
4:53 PM91 °FSunny.14 mph50%29.84 "Hg10 mi
3:53 PM91 °FSunny.N/A49%29.86 "Hg10 mi
2:53 PM89 °FScattered clouds.7 mph53%29.88 "Hg10 mi
1:53 PM90 °FPassing clouds.5 mph52%29.91 "Hg10 mi
12:53 PM89 °FPartly sunny.5 mph55%29.93 "Hg10 mi
11:53 AM87 °FScattered clouds.5 mph57%29.95 "Hg10 mi
10:53 AM84 °FPassing clouds.3 mph65%29.95 "Hg10 mi
9:53 AM81 °FPassing clouds.3 mph74%29.96 "Hg10 mi
8:53 AM76 °FSunny.5 mph85%29.97 "Hg10 mi
7:53 AM73 °FPassing clouds.3 mph94%29.97 "Hg7 mi
6:53 AM71 °FFog.No wind93%29.95 "Hg5 mi
5:53 AM71 °FFog.No wind90%29.96 "Hg4 mi
4:53 AM70 °FFog.3 mph93%29.95 "Hg6 mi
3:53 AM72 °FFog.No wind91%29.95 "Hg6 mi
2:53 AM72 °FClear.No wind91%29.96 "Hg9 mi
Weather by CustomWeather, © 2014

See weather overviewHow to use our weather pages